Regional Weather Roundup
Issued by NWS

Home | Current Version | Previous Version | Text Only | Print | Product List | Glossary Off
Versions: 1 2 3 4 5 6 7 8 9 10 11 12 13 14 15 16 17 18 19 20 21 22 23 24 25 26 27 28 29 30 31 32 33 34 35 36 37 38 39 40 41 42 43 44 45 46 47 48 49 50

065
ASUS43 KDMX 181201
RWRIA

WEATHER ROUNDUP FOR IOWA
NATIONAL WEATHER SERVICE DES MOINES IA
600 AM CST WED JAN 18 2017

NOTE: "FAIR" INDICATES FEW OR NO CLOUDS BELOW 12,000 FEET WITH NO
SIGNIFICANT WEATHER AND/OR OBSTRUCTIONS TO VISIBILITY.

* - THESE STATIONS ARE NOT NWS STATIONS...THUS NOT UNDER NWS
QUALITY CONTROL.  THEY ALSO DO NOT REPORT WEATHER SUCH
AS PRECIPITATION OR FOG.

IAZ001>003-012>014-020>022-031>034-043>046-181300-
   NORTHWEST IOWA

CITY           SKY/WX    TMP DP  RH WIND       PRES   REMARKS
CARROLL *      CLOUDY    32  32 100 SW10      30.02S WCI  24
CHEROKEE *     CLOUDY    26  26  99 S3        29.96F
DENISON *      CLEAR     28  28 100 S8        30.00S WCI  20
LE MARS *      CLOUDY    27  25  93 S7        29.96S WCI  19
ORANGE CITY *  CLOUDY    27  27 100 S3        29.92F
SHELDON *      CLOUDY    28  30 100 S9        29.91F WCI  20
SIOUX CITY     CLEAR     27  24  89 SE7       29.97S WCI  19
6HR MIN TEMP:  25; 6HR MAX TEMP:  32;

SPENCER        CLOUDY    31  27  85 SW10      29.94F WCI  22
6HR MIN TEMP:  24; 6HR MAX TEMP:  31;

STORM LAKE *   CLEAR     28  27  93 SW13      29.96F WCI  18
$$

IAZ055>058-069>071-079>083-090>094-181300-
   SOUTHWEST IOWA

CITY           SKY/WX    TMP DP  RH WIND       PRES   REMARKS
ATLANTIC *     CLEAR     27  27 100 CALM      30.06S
AUDUBON *      CLOUDY    28  27  93 CALM      30.05S
CLARINDA *     FOG       27  27 100 S3        30.10F VSB 1/2
COUNCIL BLFS * CLOUDY    30  30 100 S9        30.04S WCI  22
CRESTON *      FOG       27  27 100 S3        30.08F VSB 1/4
HARLAN  *      CLOUDY    28  28 100 S9        30.07F WCI  20
LAMONI         FOG       29  28  96 S7        30.09F VSB 1/4 WCI  22
6HR MIN TEMP:  29; 6HR MAX TEMP:  32;

RED OAK *      CLOUDY    27  27 100 CALM      30.07F
SHENANDOAH *   CLOUDY    27  27 100 S5        30.09S WCI  21
$$

IAZ047>049-059>061-072>074-084-181300-
   CENTRAL IOWA

CITY           SKY/WX    TMP DP  RH WIND       PRES   REMARKS
AMES           CLOUDY    31  31 100 S10       30.06F FOG     WCI  22
6HR MIN TEMP:  29; 6HR MAX TEMP:  32;

ANKENY *       CLOUDY    30  30 100 S10       30.10R FOG     WCI  21
BOONE *        CLOUDY    30  30 100 S10       30.05R FOG     WCI  21
CHARITON *     FOG       32  32 100 CALM      30.09F VSB 1
DES MOINES     FOG       31  30  96 SW10      30.09F VSB 1/2 WCI  22
6HR MIN TEMP:  28; 6HR MAX TEMP:  33;

GRINNELL*      CLOUDY    31  30  96 SW6       30.09F FOG     WCI  25
KNOXVILLE *    CLOUDY    32  30  93 SW10      30.10S FOG     WCI  24
MARSHALLTOWN   CLOUDY    30  29  96 S6        30.07F FOG     WCI  24
6HR MIN TEMP:  28; 6HR MAX TEMP:  31;

NEWTON *       CLOUDY    32  30  93 SW6       30.08S FOG     WCI  26
PELLA *        CLOUDY    32  30  95 SW6       30.12S FOG     WCI  26
PERRY *          N/A     31  31 100 S13       30.06R FOG     WCI  21
$$

IAZ004>006-015-016-023>025-035-036-181300-
   NORTH CENTRAL IOWA

CITY           SKY/WX    TMP DP  RH WIND       PRES   REMARKS
ALGONA *       FOG       30  30 100 S12       29.98F VSB 1/4 WCI  21
CLARION *      FOG       30  30 100 S9        30.02F VSB 1/4 WCI  22
ESTHERVILLE    CLOUDY    25  25 100 S10       29.94F FOG     WCI  15
6HR MIN TEMP:  24; 6HR MAX TEMP:  26;

FORT DODGE *   CLOUDY    28  27  93 MISG      30.02F
MASON CITY     CLOUDY    28  27  96 S10       30.02F FOG     WCI  19
6HR MIN TEMP:  27; 6HR MAX TEMP:  29;

FOREST CITY *  CLOUDY    30  30 100 S9        29.99F FOG     WCI  22
WEBSTER CITY * FOG       28  28 100 S10       30.02S VSB 3/4 WCI  19
IOWA FALLS *   CLOUDY    31  30  96 SW3       30.06F FOG
$$

IAZ007>011-017>019-026>030-037>042-050>054-066-181300-
   NORTHEAST IOWA

CITY           SKY/WX    TMP DP  RH WIND       PRES   REMARKS
CEDAR RAPIDS   CLOUDY    30  29  96 SW6       30.10S FOG     WCI  24
6HR MIN TEMP:  30; 6HR MAX TEMP:  32;

CHARLES CITY * CLOUDY    28  28 100 SW10G16   30.05F FOG     WCI  19
CLINTON *      CLOUDY    33  32  96 W15       30.13R WCI  23
DECORAH *      CLOUDY    28  28 100 SW8G17    30.05S WCI  20
DUBUQUE        CLOUDY    30  30 100 W15       30.08S FOG     WCI  19
6HR MIN TEMP:  30; 6HR MAX TEMP:  33;

MONTICELLO *   CLOUDY    32  30  93 W8        30.10S WCI  25
OELWEIN *      CLOUDY    30  30 100 SW10      30.07F FOG     WCI  21
WATERLOO       CLOUDY    30  27  88 SW8       30.08F WCI  22
6HR MIN TEMP:  30; 6HR MAX TEMP:  31;

$$

IAZ064-065-067-068-078-181300-
   EAST CENTRAL IOWA

CITY           SKY/WX    TMP DP  RH WIND       PRES   REMARKS
DAVENPORT      CLOUDY    32  30  92 W10       30.13R WCI  24
6HR MIN TEMP:  32; 6HR MAX TEMP:  34;

IOWA CITY      CLOUDY    32  29  88 W6        30.13F WCI  26
6HR MIN TEMP:  32; 6HR MAX TEMP:  35;

MUSCATINE *    CLOUDY    34  30  86 W5        30.15S WCI  30
QUAD CITIES    CLOUDY    34  30  85 W9        30.12S WCI  27
6HR MIN TEMP:  34; 6HR MAX TEMP:  36;

$$

IAZ062-063-075>077-085>089-095>099-181300-
   SOUTHEAST IOWA

CITY           SKY/WX    TMP DP  RH WIND       PRES   REMARKS
BURLINGTON     CLOUDY    31  30  96 SW5       30.13F WCI  26
6HR MIN TEMP:  31; 6HR MAX TEMP:  36;

FAIRFIELD *    CLOUDY    30  28  93 SW3       30.11F
FORT MADISON * CLOUDY    30  28  93 SW3       30.14F
KEOKUK *       CLOUDY    34  32  93 W7        30.14F WCI  28
OSKALOOSA *    CLOUDY    31  30  97 SW6       30.11F FOG     WCI  25
OTTUMWA        CLOUDY    32  29  88 SW6       30.10F WCI  26
6HR MIN TEMP:  30; 6HR MAX TEMP:  34;

WASHINGTON *   CLOUDY    30  30 100 SW5       30.14S WCI  25
$$

ABBREVIATIONS USED IN REMARKS
   TC - TEMPERATURES IN CELSIUS
  WCI - WIND CHILL INDEX
   HX - HEAT INDEX
  VSB - VISIBILITY
$$





USA.gov is the U.S. government's official web portal to all federal, state and local government web resources and services.